If you wish to contribute or participate in the discussions about articles you are invited to join SKYbrary as a registered user

 Actions

Albany Airport (Australia)

From SKYbrary Wiki

YABA
Airport
ICAO: YABA – IATA: ALH
Summary
Name Albany Airport (Australia)
Region Asia and Pacific
Territory Australia AU.gif
Location Drome, Western Australia
Serving Albany
Elevation 71.018 m <br />233 ft <br />233 ft71.018 m <br />
Type medium airport
Coordinates 34° 56' 35.88" S, 117° 48' 32.40" E
Runways
Designator Length Width Surface ROPS
5/23 1096 m3,595.801 ft <br /> 30 m98.425 ft <br /> GVL /
14/32 1800 m5,905.512 ft <br /> 30 m98.425 ft <br /> ASP /


METAR
Observation YABA 161600Z AUTO 27007KT 240V300 9999 // SCT029 SCT041 BKN058 07/06 Q1015
Station Albany Aerodrome
Date/Time 16 September 2021 16:00:00
Wind direction 270°
Wind speed 07 kts
Lowest cloud amount scattered clouds
Temperature 7°C
Dew point 6°C
Humidity 93%
QNH 1015 hPa
Weather condition n/a

Maps

Terrain

Loading map...

Airport Layout

Loading map...


Accidents & Serious Incidents at or in vicinity of YABA

None on SKYbrary